User: anonymous   Login
Location: Unspecified
(0.0000°N, 0.0000°E)
Time: 01:39:16
(UTC+00:00)
Language:

USA 32 - Orbit

View from above orbital plane
View from above orbital plane
View from above satellite
View from above satellite

Ground track
Ground track

The orbit data is extracted from the following two-line orbital elements,

1 19460U 88078A   17117.06236637 0.00000060  00000-0  21778-4 0    09
2 19460  84.9802 251.6602 0003000 352.9730   7.0572 14.33412501    02
Epoch (UTC): 27 April 2017 01:29:48
Eccentricity: 0.0003000
inclination: 84.9802°
perigee height: 778 km
apogee height: 782 km
right ascension of ascending node: 251.6602°
argument of perigee: 352.9730°
revolutions per day: 14.33412501
mean anomaly at epoch: 7.0572°
orbit number at epoch: 0

The dashed part of the orbit path shows where the satellite is in the earth's shadow,  

DLR